NSS-10

Last updated on Thu Oct 30 2025 00:02:47 GMT+0000 (Coordinated Universal Time)

1 28526U 05003A 25302.24956662 -.00000238 00000+0 00000+0 0 9995 2 28526 5.8711 73.2363 0002909 149.0082 228.0180 1.00271365 50848
UTC large
Height (km)
Speed (km/s)
/
Latitude / Longitude
Inclination (degrees)
Orbital Period (minutes)
Azimuth
Elevation
Range (km)
Doppler Factor

Next 0 passes for location: London (51.5072 / 0.1276)

Sorry there are no passes over London.